Location: Ingoldesthorpe
(52.8667°N, 0.5167°E)
Time: 20:39:41
(UTC+00:00)

SAR-Lupe-2 - Pass Details

Date: 19 May 2025
Orbit: 478 x 487 km, 98.1° (Epoch: 16 May)

Event Time Altitude Azimuth Distance (km) Brightness Sun altitude
Exits shadow 20:57:49 - 171° (S) 1,935 6.1 -7.7°
Reaches altitude 10° 20:58:29 10° 172° (S) 1,653 5.8 -7.8°
Maximum altitude 21:02:01 69° 256° (WSW) 521 3.8 -8.2°
Drops below altitude 10° 21:05:36 10° 341° (NNW) 1,670 7.6 -8.5°
Sets 21:07:41 0° 344° (NNW) 2,556 8.7 -8.7°
